STARLINK-32657, 62475

Orbit data source: Space-Track

STARLINK-32657, 62475 is a payload satellite owned by SpaceX/Seattle (US) in LEO that was launched on Tue, 31 Dec 2024 UTC via an FALCON 9 launch vehicle from the Air Force Eastern Test Range (AFETR). Payload-class satellites include a variety of spacecraft equipped with specific instruments for various scientific and technological missions. These include communications satellites like Starlink; space stations such as the ISS; scientific satellites like the Hubble; Earth observation satellites from companies like Planet Labs, Umbra, and HawkEye 360; GPS; miniature CubeSats for education and research; and military/defense satellites.

Loading next visibility...
Identifier
62475, 2024-254P
Orbit
LEO
Last TLE update
9 hours ago
Origin
Manufacturer
SpaceX/Seattle
Mission
Operational Commercial Communications
Bus & Motor
STARLINK V2M, Unknown motor
Mass
730 kg wet, ~700 kg dry
Launch date (UTC)
2024-12-31 (6 months ago)
Launch vehicle
FALCON 9
Launch site
Air Force Eastern Test Range (AFETR)
Object type
Payload
Rocket body
Debris
Shape & HBR
Box + 2 Pan, 29 m
Radar Cross Section
33.884 m², Large (>1 m²)

Expand to show TLE details & history

TLE from 9 hours ago
0 STARLINK-32657
1 62475U 24254P   25181.87827201  .00022084  00000-0  80875-3 0  9990
2 62475  43.0013   1.7631 0000998 259.4836 100.5903 15.27615405 28956
Epoch: 2025-06-30T21:04Z
TLE epoch observation values (Epoch: 2025-06-30T21:04:42.701Z)
Latitude
-0.00004°
Longitude
126.40337°
Altitude
482.845 km
Speed
7.626 km/s
True Right ascension
00h 07m 03s
True Declination
0° 00' 00"
Sunlit
Object was in daylight at epoch
Visualization orbit readout
Latitude
16.97461°
Longitude
-74.59913°
Altitude
482.241 km
Speed
7.627 km/s
Apparent Right ascension
08h 27m 16s
Apparent Declination
-13° 27' 06"
Sunlit
Object is in daylight
Visualization observer readout
Local Sidereal Time
17:13:34
Azimuth
287.952° WNW
Elevation
-40.113°
Doppler factor
1
Orbital elements
Apogee altitude
485.573 km
Perigee altitude
484.203 km
Semi-major axis
6,863.025 km
Eccentricity
0.0001
Inclination
43.0013°
RAAN
1.7631°
Arg. of periapsis
259.4836°
True anomaly
Unknown
Mean anomaly
100.5903°
Eccentric anomaly
Unknown
Mean motion
3.81742 °/min
Orbital period
94.3 mins
BSTAR
0.00080875
Loading maneuver chart data...
Loading SW <> Apogee altitude chart data...
Loading historical data...
Loading historical data...
Loading historical data...
Loading historical data...
Loading historical data...
Loading historical data...
Loading historical data...

STARLINK-32657 Visibility forecast

Observer location: undefined°, undefined°

Span
Click to sort rows by Start time (UTC) header in descending order
Start Az.
Max El. time (UTC)
Max El. Az.
Max El.
End time (UTC)
End Az.
4 mins2025-07-01 14:31:55.732Z178.889° S2025-07-01 14:33:55.732Z139.483° SSE18.002°2025-07-01 14:35:55.732Z103.472° ESE
6 mins2025-07-01 16:09:55.732Z244.501° WSW2025-07-01 16:11:55.732Z221.788° SW43.118°2025-07-01 16:15:55.732Z73.02° E
6 mins2025-07-01 17:48:55.732Z285.454° WNW2025-07-01 17:50:55.732Z328.391° NNW36.719°2025-07-01 17:54:55.732Z74.437° E
6 mins2025-07-01 19:27:55.732Z291.187° WNW2025-07-01 19:30:55.732Z63.798° ENE42.583°2025-07-01 19:33:55.732Z100.333° ESE
4 mins2025-07-01 21:07:55.732Z251.327° W2025-07-01 21:08:55.732Z225.107° WSW26.73°2025-07-01 21:11:55.732Z154.282° SSE
|